Home > Weather > Yaren > Past weeks

Flag for Nauru Past Weather in Yaren, Nauru — Yesterday and Last 2 Weeks

Now
82 °F

Passing clouds.


Feels Like: 89 °F
Forecast: 82 / 87 °F
Wind: 13 mph from East

Location: Betio Village

Current Time: Jun 26, 2016 at 4:04:49 AM

Latest Report: Jun 26, 2016 at 3:00 AM


Visibility: N/A

Pressure: 29.74 "Hg

Humidity: 79%

Dew Point: 75 °F

Location of YarenLocation

Past Weather in Yaren — Graph

°F

Yaren Temperature Yesterday

Maximum temperature yesterday: 90 °F (at 1:00 PM)
Minimum temperature yesterday: 82 °F (at 3:00 AM)
Average temperature yesterday: 86 °F

High & Low Weather Summary for the Past Weeks

 TemperatureHumidityPressure
High91 °F (Jun 12, 4:00 PM)100% (Jun 15, 5:00 AM)29.92 "Hg (Jun 15, 5:00 AM)
Low77 °F (Jun 15, 6:00 AM)59% (Jun 12, 2:00 PM)29.68 "Hg (Jun 21, 3:00 PM)
Average85 °F78%29.79 "Hg
* Reported Jun 11 2:00 AM — Jun 26 2:00 AM, Yaren, Weather by CustomWeather, © 2016

Note: Actual official high and low records may vary slightly from our data, if they occured in-between our weather recording intervals... More about our weather records

Advertising

Yaren Weather History for the Previous 24 Hours

Scroll right to see more
 ConditionsComfort  
Time TempWeatherWind HumidityBarometerVisibility
2:00 AM
Sun, Jun 26
84 °FPassing clouds.14 mph79%29.77 "HgN/A
1:00 AM84 °FPassing clouds.16 mph79%29.77 "HgN/A
12:00 AM84 °FPassing clouds.15 mph79%29.80 "HgN/A
11:00 PM
Sat, Jun 25
84 °FPassing clouds.17 mph74%29.80 "HgN/A
10:00 PM84 °FPassing clouds.16 mph79%29.80 "HgN/A
9:00 PM84 °FPassing clouds.15 mph79%29.77 "HgN/A
8:00 PM84 °FPassing clouds.17 mph79%29.77 "HgN/A
7:00 PM84 °FPassing clouds.14 mph79%29.77 "HgN/A
6:00 PM86 °FScattered clouds.15 mph75%29.74 "HgN/A
5:00 PM88 °FScattered clouds.17 mph70%29.74 "HgN/A
4:00 PM90 °FScattered clouds.15 mph71%29.74 "HgN/A
3:00 PM90 °FScattered clouds.13 mph71%29.71 "HgN/A
2:00 PM90 °FScattered clouds.14 mph67%29.74 "HgN/A
1:00 PM90 °FScattered clouds.15 mph71%29.77 "HgN/A
11:00 AM86 °FBroken clouds.17 mph79%29.77 "HgN/A
10:00 AM88 °FBroken clouds.14 mph75%29.80 "HgN/A
9:00 AM88 °FBroken clouds.14 mph75%29.80 "HgN/A
8:00 AM86 °FBroken clouds.15 mph79%29.77 "HgN/A
7:00 AM84 °FBroken clouds.12 mph84%29.74 "HgN/A
6:00 AM84 °FPartly cloudy.9 mph84%29.74 "HgN/A
5:00 AM84 °FPartly cloudy.8 mph79%29.74 "HgN/A
4:00 AM84 °FPassing clouds.10 mph84%29.74 "HgN/A
Weather by CustomWeather, © 2016

See weather overviewHow to use our weather pages